Location: Alpe Hannig
(46.2070°N, 7.8668°E)
Time: 03:05:21
(UTC+00:00)

Daily predictions for brighter satellites

Satellite Brightness Start Highest point End
(mag) Time Altitude Azimuth Time Altitude Azimuth Time Altitude Azimuth
Cosmos 2278 Rocket 4.3 03:14:43 20° NE 03:15:15 20° NE 03:19:20 10° E
Cosmos 2333 Rocket 3.5 03:32:03 37° ENE 03:32:03 37° ENE 03:36:10 10° NE
Cosmos 2219 Rocket 3.5 03:33:23 36° E 03:33:23 36° E 03:37:49 10° NE
USA 215 4.1 03:42:54 10° NE 03:48:02 38° N 03:48:02 38° N
COSMOS 2428 3.6 03:50:01 42° SE 03:50:48 45° ESE 03:56:11 10° NE
SL-16 R/B 4.3 04:00:40 15° N 04:00:40 15° N 04:01:46 10° N
Cosmos 2360 Rocket 3.7 04:05:03 26° N 04:05:03 26° N 04:07:33 10° NNE
Cosmos 2322 Rocket 4.2 04:06:15 17° N 04:06:15 17° N 04:07:38 10° NNE
Cosmos 44 Rocket 4.5 04:08:18 39° NNE 04:08:57 40° NE 04:13:52 10° ESE
ADEOS 3.8 04:10:47 10° NNE 04:16:01 69° ESE 04:17:44 42° S
ATLAS 5 CENTAUR R/B 4.0 04:19:14 19° ESE 04:19:14 19° ESE 04:20:38 10° ESE
Cosmos 990 Rocket 4.0 04:19:24 74° ENE 04:19:26 74° ENE 04:24:33 10° SSE
Cosmos 1953 4.5 04:19:08 10° SE 04:22:26 25° E 04:25:45 10° NNE
ERS-2 3.6 04:20:46 10° SE 04:23:28 35° E 04:23:28 35° E
IRIDIUM 106 4.2 04:28:44 10° S 04:33:57 87° W 04:39:13 10° N
SL-8 R/B 3.6 04:34:40 86° SE 04:34:40 86° SE 04:39:24 10° ESE
Cosmos 1461 3.6 04:35:33 37° S 04:37:11 59° ESE 04:41:53 10° NE
SJ-12 4.0 04:34:53 10° NNE 04:39:02 78° E 04:39:02 78° E
Cosmos 1689 Rocket 4.1 04:37:51 10° SE 04:39:51 28° E 04:39:51 28° E
Cosmos 1892 Rocket 3.9 04:43:43 52° S 04:43:43 52° S 04:47:06 10° S
Cosmos 1763 Rocket 3.4 04:40:44 26° SSW 04:43:43 88° ESE 04:48:59 10° NNE
CZ-2C R/B 4.1 04:43:48 10° SSE 04:44:05 10° SSE 04:44:22 10° SSE
Cosmos 2084 4.0 04:49:48 44° N 04:49:48 44° N 04:53:14 10° NNE
Cosmos 1898 Rocket 3.3 04:48:06 50° NW 04:49:24 73° WSW 04:54:32 10° SSE
Cosmos 841 Rocket 4.3 04:44:50 10° S 04:49:46 50° ESE 04:54:45 10° NNE
BREEZE-M DEB (TANK) 3.8 04:48:26 48° WNW 04:49:56 69° N 05:05:06 10° E
Cosmos 921 Rocket 2.8 04:53:25 64° SW 04:54:00 78° WNW 04:58:14 10° NNE
NOSS 0 Rocket 4.1 04:48:37 10° SSW 04:54:46 72° ESE 05:00:56 10° NNE
Meteor 1-21 Rocket 4.4 04:51:31 10° N 04:57:14 76° ENE 05:03:02 10° SSE
Cosmos 1513 Rocket 4.4 04:52:21 10° SSW 04:58:41 78° W 05:04:57 10° N
COSMO-SKYMED 1 2.5 04:55:02 10° S 04:59:18 58° W 04:59:33 57° W
Cosmos 1340 4.0 04:56:12 10° N 04:59:46 39° ENE 05:03:18 10° SE
Cosmos 2278 Rocket 2.1 04:56:36 24° NNW 05:00:07 87° WSW 05:05:48 10° SSE
METEOR-M 4.4 04:57:11 10° N 05:02:13 43° WNW 05:02:51 41° W
CZ-4B R/B 2.5 04:58:50 10° NNE 05:02:27 88° WNW 05:06:07 10° SSW
Cosmos 1703 4.2 04:58:46 10° N 05:02:33 47° ENE 05:06:18 10° SSE
Cosmos 1891 Rocket 4.4 05:01:06 10° SSW 05:07:15 66° W 05:13:20 10° N
Cosmos 1943 Rocket 4.2 05:02:45 10° N 05:07:17 24° NE 05:11:50 10° E
Cosmos 2322 4.3 05:09:01 34° WNW 05:09:32 34° NW 05:14:46 10° NNE
SAR-Lupe-4 3.4 05:06:39 10° S 05:10:13 77° WSW 05:11:24 40° NNW
Cosmos 1464 Rocket 3.8 05:04:48 10° SSW 05:10:53 67° W 05:17:01 10° N
Cosmos 2237 Rocket 2.4 05:05:39 10° SSW 05:11:17 74° ESE 05:16:59 10° NNE
CZ-2C R/B 3.7 05:07:41 10° SE 05:12:34 43° ENE 05:17:36 10° N
Lacrosse 5 rocket 1.4 05:11:52 38° NNW 05:13:07 62° NE 05:16:49 10° ESE
Lacrosse 4 Rocket 3.7 05:11:40 10° SSE 05:15:13 27° ESE 05:18:52 10° NE
Cosmos 2333 Rocket 2.8 05:14:07 33° WNW 05:15:14 36° NW 05:20:26 10° NNE
Cosmos 1072 Rocket 4.5 05:09:39 10° SSW 05:15:43 57° WNW 05:21:57 10° N
H-2A R/B 2.5 05:12:05 10° N 05:15:47 82° WNW 05:19:30 10° SSW
Cosmos 2219 Rocket 2.6 05:15:10 32° W 05:16:39 38° NW 05:21:51 10° NNE
Cosmos 1544 Rocket 3.4 05:12:49 10° SSW 05:17:07 72° W 05:21:28 10° N
Cosmos 468 Rocket 4.2 05:14:26 22° SW 05:17:34 47° WNW 05:22:42 10° NNE
SAR-Lupe-1 4.0 05:17:31 10° S 05:21:02 57° WSW 05:22:28 32° NW
Cosmos 2208 Rocket 4.5 05:17:07 10° S 05:22:30 67° ESE 05:27:54 10° NNE
DMSP B5D1-3 4.5 05:18:31 10° SSE 05:23:38 89° WSW 05:28:46 10° NNW
Cosmos 1937 Rocket 3.7 05:20:43 21° NW 05:24:04 51° WSW 05:29:07 10° S
BREEZE-M DEB (TANK) 3.4 05:20:10 23° WNW 05:25:43 61° SW 05:29:07 10° SE
Cosmos 372 Rocket 4.0 05:20:58 10° NNW 05:26:16 90° E 05:31:30 10° SSE
Okean 1-7 Rocket 4.0 05:23:32 19° NNW 05:26:23 42° W 05:30:37 10° SSW
Cosmos 1814 Rocket 4.1 05:21:52 10° SSW 05:26:59 78° ESE 05:32:08 10° NNE
GEOS 3 Rocket 4.0 05:23:14 10° SSE 05:28:21 46° WSW 05:31:32 22° WNW
Envisat 3.0 05:24:12 10° NNE 05:29:19 88° ESE 05:34:24 10° SSW
Cosmos 1328 4.0 05:26:00 10° N 05:29:57 70° E 05:33:51 10° SSE
Cosmos 1400 Rocket 3.0 05:26:28 10° S 05:30:32 79° E 05:34:40 10° NNE
USA 215 4.2 05:25:09 10° ENE 05:30:57 35° N 05:35:23 16° NW
FALCON 9 DEB 3.1 05:31:29 22° SW 05:33:33 78° SSE 05:36:57 10° ENE
NOAA 6 4.3 05:29:02 10° NNE 05:34:15 71° ESE 05:39:25 10° S
COSMOS 2428 3.3 05:32:07 20° WSW 05:35:13 34° NW 05:40:22 10° NNE
Cosmos 1626 Rocket 3.5 05:30:48 10° NNW 05:35:14 63° W 05:39:38 10° S
SL-4 R/B 3.9 05:32:48 10° SSW 05:36:04 28° SE 05:39:35 10° ENE
PSLV R/B 3.7 05:33:57 10° NNE 05:37:54 84° WNW 05:41:56 10° SSW
Cosmos 1092 Rocket 3.9 05:32:07 10° N 05:38:17 88° W 05:44:28 10° S
YAOGAN 6 2.5 05:35:16 10° N 05:38:57 66° WNW 05:42:36 10° SSW
Cosmos 1980 3.7 05:38:35 10° SW 05:44:10 61° WNW 05:49:48 10° NNE
Cosmos 1455 Rocket 4.0 05:40:33 10° SW 05:44:12 26° WNW 05:47:51 10° NNW
Cosmos 1300 3.7 05:43:16 10° S 05:46:56 49° E 05:50:38 10° NNE
Cosmos 2360 Rocket 4.0 05:46:50 13° NW 05:47:24 13° NW 05:49:50 10° N
Cosmos 2034 Rocket 4.2 05:42:13 10° SSW 05:48:23 51° WNW 05:54:35 10° N
Cosmos 44 Rocket 4.1 05:47:02 17° WNW 05:50:29 37° WSW 05:55:15 10° S
H-2A R/B 2.8 05:47:49 10° NNE 05:52:19 78° ESE 05:56:50 10° S
ATLAS CENTAUR R/B 2.1 05:51:31 10° SSW 05:55:06 49° ESE 05:58:39 10° NE
Nadezhda 4 Rocket 4.3 05:49:26 10° NNW 05:55:06 41° W 06:00:44 10° SSW
NOSS 3-2 (A) 4.0 05:50:31 10° SSW 05:56:01 59° ESE 06:02:18 10° NE
Cosmos 1758 Rocket 3.6 05:52:52 10° N 05:57:24 89° W 06:01:52 10° S
ERS-2 3.8 05:55:39 10° SW 05:57:54 16° W 05:58:04 15° W
MOS 1 Rocket 4.4 05:53:55 10° SSW 05:58:03 25° W 06:02:02 10° NW
Cosmos 540 Rocket 3.8 05:53:30 10° SW 05:58:20 41° WNW 06:03:12 10° N
CZ-4B DEB 4.2 05:52:57 10° NNE 05:58:32 76° WNW 06:04:04 10° SSW
Cosmos 1953 3.2 05:55:22 10° SW 05:58:45 26° WNW 06:02:08 10° NNW
BREEZE-M DEB (TANK) 3.4 05:56:48 10° WSW 06:00:04 75° SSE 06:11:07 10° ENE
Okean O Rocket 2.0 05:57:55 10° NNE 06:02:18 68° ESE 06:06:37 10° S
Cosmos 1634 Rocket 3.9 05:58:20 10° SSW 06:04:30 79° W 06:10:43 10° N
Cosmos 1908 3.9 06:01:12 10° SW 06:04:37 31° WNW 06:08:05 10° N
USA 307 4.1 06:07:32 10° SSW 06:11:34 44° SE 06:15:36 10° ENE
Cosmos 1689 Rocket 4.1 06:10:29 10° WSW 06:11:36 12° W 06:11:43 12° W
SMAP 3.0 06:07:55 10° N 06:12:34 71° WNW 06:17:11 10° SSW
Spot 2 4.1 06:10:16 10° N 06:14:12 49° WNW 06:18:06 10° SW
AQUARIUS 4.1 06:09:44 10° N 06:14:15 76° WNW 06:18:44 10° SSW
Cosmos 1602 Rocket 4.3 06:11:23 10° NNW 06:15:21 33° W 06:19:21 10° SSW
Cosmos 1461 4.3 06:12:39 10° W 06:16:38 26° NW 06:20:39 10° NNE
Cosmos 1726 Rocket 3.9 06:12:50 10° S 06:17:06 69° E 06:21:25 10° NNE
Cosmos 1892 4.1 06:13:51 10° N 06:17:30 41° ENE 06:21:09 10° SSE
Cosmos 2150 Rocket 4.1 06:13:23 10° NNW 06:18:39 64° WSW 06:23:59 10° S
Cosmos 1315 Rocket 2.7 06:14:48 10° S 06:18:43 89° WNW 06:22:39 10° N
USA 308 3.8 06:16:09 10° SW 06:20:15 51° SE 06:24:21 10° ENE
USA 305 3.7 06:16:41 10° SW 06:20:50 55° SE 06:24:59 10° ENE
CZ-2C R/B 3.7 06:20:29 10° SW 06:22:54 16° S 06:25:14 10° SE
DMSP B5D2-2 4.1 06:18:15 10° S 06:23:27 68° WSW 06:28:44 10° NNW
H-2A R/B 4.4 06:21:11 10° NE 06:25:50 29° E 06:30:31 10° SSE
CZ-2C R/B 4.4 06:21:29 10° NNE 06:27:12 51° E 06:32:47 10° S
Cosmos 1655 Rocket 4.4 06:22:56 10° N 06:29:12 71° E 06:35:27 10° SSE
Cosmos 841 Rocket 4.5 06:27:43 10° WSW 06:31:56 25° NW 06:36:11 10° N
Cosmos 2026 Rocket 4.4 06:26:13 10° NNW 06:32:13 46° W 06:38:13 10° SSW
